sat.trackr.live / text

‹ back to catalog

STARLINK-34703

NORAD 65387 · 2025-191J

PAYLOAD ACTIVE UNKNOWN

§ Identity

Operator
Country
US
Launch date
2025-08-30
Launch site
AFWTR
Launch vehicle
Mass (kg)
RCS (m²)

Purposes: comms

External: N2YO · Heavens-Above · Gunter

§ Orbital elements

Epoch: 2026-05-25T03:16:03.006624Z

Period
95.64 min
Inclination
97.4494°
Eccentricity
0.0002194
Mean motion
15.05661533 rev/d
Perigee alt
548.0 km
Apogee alt
551.0 km
Semi-major
6,927.6 km
B*
2.2689e-4
RAAN
16.5202°
Arg perigee
92.7013°
Mean anomaly
267.4465°
Rev number
4,177

§ Raw data

STARLINK-347031 65387U 25191J   26145.13614591  .00003218  00000+0  22689-3 0  99982 65387  97.4494  16.5202 0002194  92.7013 267.4465 15.05661533 41770

JSON: /api/v1/satellites/65387 · /tle

For live sub-satellite position, see the globe view (requires WebGL).

§ Visibility from observer

Set your observer location to see the next 7 days of passes ≥ 10°. The values pass through the URL so the page stays shareable.

No JS? Fill the form by hand. The geolocation button needs JavaScript.